CW3224 Weather Reports


time (UTC)temp
C
wind
direction
speed
KPH
gust
KPH
rain 1hr
cm
rain 24hr
cm
rain mn
cm
humidity
%
barometer
mb
20260507202644 16 301 4.8 11.3 0.00 0.46 0.05 40 1005.2
20260507201645 16 260 4.8 9.7 0.00 0.48 0.05 38 1005.2
20260507200645 17 55 3.2 11.3 0.00 0.51 0.05 40 1005.3
20260507195644 17 349 4.8 11.3 0.00 0.53 0.05 40 1005.4
20260507194645 17 51 4.8 12.9 0.00 0.53 0.05 41 1005.4
20260507194126 17 246 4.8 9.7 0.00 0.53 0.05 42 1005.5
20260507192641 17 296 4.8 14.5 0.00 0.53 0.05 37 1005.6
20260507191640 17 76 3.2 14.5 0.00 0.53 0.05 40 1005.6
20260507190640 17 190 3.2 11.3 0.00 0.56 0.05 37 1005.8
20260507185641 17 301 4.8 14.5 0.00 0.56 0.05 38 1006.0
20260507184641 18 277 4.8 12.9 0.00 0.58 0.05 39 1006.0
20260507183638 18 32 6.4 17.7 0.00 0.58 0.05 38 1006.1
20260507183121 18 214 4.8 9.7 0.00 0.61 0.05 37 1006.1
20260507181638 18 19 4.8 12.9 0.00 0.61 0.05 39 1006.1
20260507180639 18 44 3.2 11.3 0.00 0.61 0.05 37 1006.4
20260507175636 18 268 4.8 9.7 0.00 0.61 0.05 40 1006.4
20260507174637 18 4 4.8 11.3 0.00 0.61 0.05 39 1006.4
20260507173636 18 277 3.2 11.3 0.00 0.61 0.05 40 1006.1
20260507172634 18 89 3.2 14.5 0.00 0.61 0.05 46 1006.2
20260507171635 17 27 4.8 12.9 0.00 0.61 0.05 39 1006.2
20260507170635 17 289 4.8 11.3 0.00 0.61 0.05 40 1006.5
20260507165634 17 258 4.8 16.1 0.00 0.61 0.05 46 1006.6
20260507164634 17 22 4.8 14.5 0.00 0.61 0.05 44 1006.6
20260507164114 17 316 4.8 12.9 0.00 0.61 0.05 50 1007.0
20260507162635 17 273 4.8 16.1 0.00 0.61 0.05 48 1007.1
20260507161635 17 310 4.8 11.3 0.00 0.61 0.05 52 1007.1
20260507160635 17 285 4.8 12.9 0.00 0.61 0.05 51 1007.2
20260507155625 16 19 4.8 14.5 0.00 0.61 0.05 54 1007.1
20260507155532 16 285 4.8 12.9 0.00 0.61 0.05 56 1007.1
20260507153624 15 212 3.2 9.7 0.00 0.61 0.05 60 1007.4
20260507152625 15 301 3.2 9.7 0.00 0.61 0.05 58 1007.4
20260507152110 15 276 3.2 11.3 0.00 0.61 0.05 63 1007.4
20260507151106 14 148 3.2 8.0 0.00 0.61 0.05 62 1007.6
20260507145616 14 268 1.6 6.4 0.00 0.61 0.05 63 1007.6
20260507145058 14 279 4.8 11.3 0.00 0.61 0.05 63 1007.6
20260507143615 14 246 4.8 9.7 0.00 0.61 0.05 69 1007.6
20260507142614 13 208 3.2 11.3 0.00 0.61 0.05 69 1007.6
20260507141613 13 266 4.8 11.3 0.00 0.61 0.05 68 1007.6
20260507140614 13 301 1.6 6.4 0.00 0.61 0.05 74 1007.6
20260507135614 12 301 1.6 8.0 0.00 0.61 0.05 72 1007.6
20260507134612 12 73 3.2 8.0 0.00 0.61 0.05 72 1007.6
20260507134100 12 154 1.6 9.7 0.00 0.61 0.05 75 1007.5
20260507132610 12 193 3.2 8.0 0.00 0.61 0.05 77 1007.6
20260507132044 11 56 3.2 8.0 0.00 0.61 0.05 78 1007.6
20260507130609 11 73 3.2 8.0 0.00 0.61 0.05 80 1007.8
20260507125608 10 296 1.6 8.0 0.00 0.61 0.05 82 1007.8
20260507124607 10 301 3.2 8.0 0.00 0.61 0.05 84 1007.8
20260507123559 10 44 3.2 11.3 0.00 0.61 0.05 84 1008.0
20260507122601 9 2 4.8 9.7 0.00 0.61 0.05 85 1008.1
20260507121558 9 34 1.6 8.0 0.00 0.61 0.05 87 1008.1
20260507120558 8 98 1.6 4.8 0.00 0.61 0.05 89 1008.1
20260507115559 8 221 1.6 6.4 0.00 0.61 0.05 90 1008.0
20260507114548 8 301 0.0 0.0 0.00 0.61 0.05 91 1008.0
20260507113549 8 301 0.0 0.0 0.00 0.61 0.05 91 1008.0
20260507112546 8 301 0.0 0.0 0.00 0.61 0.05 91 1007.8
20260507111547 8 133 0.0 0.0 0.00 0.61 0.05 91 1007.8
20260507110532 7 301 0.0 0.0 0.00 0.61 0.05 91 1007.7
20260507105532 7 133 0.0 0.0 0.00 0.61 0.05 91 1007.8
20260507104533 7 133 0.0 0.0 0.00 0.61 0.05 90 1007.8
20260507103530 7 133 0.0 0.0 0.00 0.61 0.05 90 1007.1
20260507102529 7 133 0.0 0.0 0.00 0.61 0.05 90 1007.2
20260507101529 7 301 0.0 0.0 0.00 0.61 0.05 90 1007.2
20260507100531 7 301 0.0 3.2 0.00 0.61 0.05 90 1007.1
20260507095528 8 301 0.0 1.6 0.00 0.61 0.05 90 1007.1
20260507094528 8 301 1.6 3.2 0.00 0.61 0.05 90 1007.1
20260507093525 8 301 0.0 0.0 0.00 0.61 0.05 90 1007.4
20260507092525 8 134 0.0 1.6 0.00 0.61 0.05 90 1007.5
20260507091523 8 301 0.0 3.2 0.00 0.61 0.05 90 1007.5
20260507091347 8 301 0.0 3.2 0.00 0.61 0.05 90 1007.3
20260507090536 8 301 0.0 1.6 0.00 0.61 0.05 90 1007.5
20260507084509 8 301 0.0 0.0 0.00 0.61 0.05 90 1007.6
20260507083511 8 301 0.0 0.0 0.03 0.61 0.05 90 1007.6
20260507082510 8 301 0.0 1.6 0.03 0.61 0.05 90 1007.2
20260507081510 8 301 0.0 0.0 0.03 0.61 0.05 91 1007.1
20260507080510 9 133 0.0 1.6 0.03 0.61 0.05 91 1007.1
20260507075500 9 301 0.0 4.8 0.03 0.61 0.05 91 1007.1
20260507074501 9 119 0.0 1.6 0.03 0.61 0.05 91 1007.5
20260507073943 9 301 0.0 0.0 0.00 0.58 0.03 91 1007.5
20260507072457 10 301 0.0 0.0 0.00 0.58 0.03 91 1006.6
20260507071934 10 301 0.0 0.0 0.00 0.58 0.03 91 1006.6
20260507070455 10 301 0.0 1.6 0.00 0.58 0.03 91 1006.6
20260507065456 10 301 0.0 0.0 0.00 0.58 0.03 91 1006.4
20260507064456 10 117 0.0 3.2 0.00 0.58 0.03 91 1006.5
20260507063455 10 117 0.0 3.2 0.00 0.58 0.03 91 1006.5
20260507062455 10 112 0.0 0.0 0.00 0.58 0.03 91 1006.5
20260507061456 10 112 0.0 0.0 0.00 0.58 0.03 91 1006.5
20260507060446 11 112 0.0 0.0 0.00 0.58 0.03 91 1006.5
20260507055445 11 112 0.0 0.0 0.00 0.58 0.03 92 1006.5
20260507054446 11 112 0.0 0.0 0.00 0.58 0.03 91 1007.1
20260507053929 11 112 0.0 0.0 0.00 0.58 0.03 92 1007.1
20260507052446 11 112 0.0 0.0 0.00 0.58 0.03 92 1006.6
20260507051446 11 112 0.0 0.0 0.03 0.58 0.03 92 1007.1
20260507050912 12 112 0.0 1.6 0.03 0.58 0.03 92 1007.1
20260507045435 12 112 0.0 4.8 0.03 0.58 0.03 92 1006.6
20260507044435 12 301 0.0 0.0 0.05 0.58 0.03 92 1006.6
20260507043435 12 301 0.0 0.0 0.08 0.58 0.03 92 1006.6
20260507042436 12 301 0.0 0.0 0.08 0.58 0.03 92 1006.6
20260507041436 12 301 0.0 0.0 0.05 0.56 0.00 92 1006.7
20260507040434 13 301 0.0 0.0 0.05 0.56 0.00 92 1006.7
20260507035430 13 296 0.0 0.0 0.05 0.56 0.56 93 1006.5
20260507034430 13 301 1.6 4.8 0.03 0.53 0.53 93 1006.2
20260507033432 13 271 0.0 0.0 0.00 0.51 0.51 93 1006.2
20260507032431 13 270 0.0 3.2 0.03 0.51 0.51 93 1006.0
20260507031431 13 270 1.6 6.4 0.03 0.51 0.51 93 1005.5
20260507030429 14 301 1.6 9.7 0.03 0.51 0.51 93 1005.5
20260507025429 14 301 0.0 8.0 0.03 0.51 0.51 93 1005.5
20260507024429 14 301 0.0 0.0 0.03 0.51 0.51 93 1005.5
20260507023428 14 198 3.2 8.0 0.03 0.51 0.51 93 1005.5
20260507022430 14 184 1.6 4.8 0.00 0.48 0.48 93 1005.5
20260507021426 14 183 0.0 4.8 0.00 0.48 0.48 93 1005.1
20260507020903 14 197 1.6 6.4 0.00 0.48 0.48 93 1005.1
20260507015426 14 203 0.0 4.8 0.00 0.48 0.48 93 1005.4
20260507014904 14 202 1.6 6.4 0.00 0.48 0.48 93 1005.3
20260507013426 14 204 1.6 6.4 0.00 0.48 0.48 93 1005.3
20260507012428 14 195 3.2 9.7 0.00 0.48 0.48 93 1005.3
20260507011844 14 217 4.8 12.9 0.00 0.48 0.48 93 1005.4
20260507011452 14 185 4.8 11.3 0.00 0.48 0.48 93 1005.4
20260507005415 14 189 4.8 11.3 0.00 0.48 0.48 93 1005.5
20260507004416 14 156 4.8 14.5 0.00 0.48 0.48 93 1005.2
20260507003416 14 190 4.8 16.1 0.00 0.48 0.48 93 1005.2
20260507002416 14 231 3.2 11.3 0.00 0.48 0.48 93 1005.0
20260507001417 14 194 3.2 9.7 0.00 0.48 0.48 92 1005.2
20260507000414 14 200 3.2 14.5 0.03 0.48 0.48 93 1005.2
20260506235414 14 167 3.2 8.0 0.05 0.48 0.48 92 1005.0
20260506234414 14 177 3.2 11.3 0.08 0.48 0.48 92 1005.0
20260506233415 14 206 3.2 11.3 0.10 0.48 0.48 92 1005.0
20260506232415 14 202 3.2 8.0 0.13 0.48 0.48 92 1005.0
20260506231415 14 198 4.8 12.9 0.15 0.48 0.48 92 1005.0
20260506230415 14 218 4.8 11.3 0.18 0.46 0.48 92 1005.0
20260506225415 14 158 4.8 11.3 0.20 0.43 0.43 92 1005.1
20260506225346 14 202 4.8 11.3 0.20 0.41 0.41 91 1005.1
20260506223414 15 193 4.8 12.9 0.23 0.38 0.38 92 1005.1
20260506222854 15 206 6.4 20.9 0.20 0.36 0.36 91 1005.2
20260506221413 15 172 4.8 12.9 0.18 0.33 0.33 91 1005.4
20260506220414 15 183 6.4 16.1 0.13 0.28 0.28 91 1005.4
20260506215414 15 148 8.0 16.1 0.08 0.23 0.23 90 1005.5
20260506214415 15 200 6.4 16.1 0.05 0.20 0.20 90 1005.5
20260506213413 15 301 4.8 12.9 0.00 0.15 0.15 90 1005.5
20260506212414 15 301 6.4 19.3 0.03 0.15 0.15 90 1005.6
20260506211411 15 301 6.4 17.7 0.03 0.15 0.15 90 1005.7
20260506210412 15 212 6.4 14.5 0.05 0.15 0.15 89 1005.7
20260506205412 15 207 4.8 17.7 0.08 0.15 0.15 89 1006.0
20260506204413 15 201 6.4 19.3 0.08 0.15 0.15 89 1006.0
20260506203402 15 301 8.0 20.9 0.08 0.15 0.15 88 1006.0